This is the latest recevied weather packets stored in our database for station/object K0WXC-1. If no packets are shown the sender has not sent any weather packets the latest 1 day(s).
| Time | Temp. | Humidity | Pressure | Rain* | Wind** | Luminosity | Snow |
|---|---|---|---|---|---|---|---|
| 1778049208 | 8.89° C | 58% | 1000.5 hPa | 0 mm | 0.45 m/s, 170° | - | - |
| 1778049088 | 8.89° C | 58% | 1000.5 hPa | 0 mm | 0.45 m/s, 170° | - | - |
| 1778048848 | 8.89° C | 58% | 1000.4 hPa | 0 mm | 0.45 m/s, 135° | - | - |
| 1778048729 | 8.89° C | 60% | 1000.2 hPa | 0 mm | 0.45 m/s, 194° | - | - |
| 1778048488 | 8.89° C | 60% | 1000.2 hPa | 0 mm | 0.45 m/s, 194° | - | - |
| 1778048429 | 8.89° C | 59% | 1000.6 hPa | 0 mm | 0.89 m/s, 283° | - | - |
| 1778048368 | 8.89° C | 59% | 1000.6 hPa | 0 mm | 0.89 m/s, 283° | - | - |
| 1778048248 | 8.89° C | 59% | 1000.6 hPa | 0 mm | 0.89 m/s, 283° | - | - |
| 1778048188 | 8.89° C | 59% | 1000.6 hPa | 0 mm | 0.89 m/s, 283° | - | - |
| 1778048128 | 8.89° C | 60% | 1000.6 hPa | 0 mm | 0.45 m/s, 186° | - | - |
| 1778048008 | 8.89° C | 60% | 1000.6 hPa | 0 mm | 0.45 m/s, 186° | - | - |
| 1778047948 | 8.89° C | 60% | 1000.6 hPa | 0 mm | 0.45 m/s, 186° | - | - |
| 1778047888 | 8.89° C | 60% | 1000.6 hPa | 0 mm | 0.45 m/s, 186° | - | - |
| 1778047828 | 8.89° C | 63% | 1000.5 hPa | 0 mm | 0.45 m/s, 165° | - | - |
| 1778047708 | 8.89° C | 63% | 1000.5 hPa | 0 mm | 0.45 m/s, 165° | - | - |
| 1778047648 | 8.89° C | 63% | 1000.5 hPa | 0 mm | 0.45 m/s, 165° | - | - |
| 1778047588 | 8.89° C | 63% | 1000.5 hPa | 0 mm | 0.45 m/s, 165° | - | - |
| 1778047528 | 8.89° C | 63% | 1000.4 hPa | 0 mm | 0.45 m/s, 204° | - | - |
| 1778047468 | 8.89° C | 63% | 1000.4 hPa | 0 mm | 0.45 m/s, 204° | - | - |
| 1778047288 | 8.89° C | 63% | 1000.4 hPa | 0 mm | 0.45 m/s, 204° | - | - |
| 1778047108 | 8.89° C | 62% | 1000.3 hPa | 0 mm | 0.89 m/s, 233° | - | - |
| 1778047048 | 8.89° C | 62% | 1000.3 hPa | 0 mm | 0.89 m/s, 233° | - | - |
| 1778046928 | 8.33° C | 66% | 1000.5 hPa | 0 mm | 0.89 m/s, 222° | - | - |
| 1778046868 | 8.33° C | 66% | 1000.5 hPa | 0 mm | 0.89 m/s, 222° | - | - |
| 1778046808 | 8.33° C | 66% | 1000.5 hPa | 0 mm | 0.89 m/s, 222° | - | - |
* Rain latest hour (hover to see other rain measurements)
** Current wind speed in m/s (hover to see current wind gust speed)